{"data":{"norad_id":65047,"intl_designator":"2025-162E","name":"HULIANWANG DIGUI-44","alt_names":[],"object_type":"PAYLOAD","status":"ACTIVE","operator":null,"country":"PRC","launch_date":"2025-07-30","launch_site_code":"WSC","launch_vehicle":null,"mission":null,"orbit_class":"UNKNOWN","rcs_meters":null,"size_class":null,"mass_kg":null,"dimensions":null,"purposes":[],"wikipedia_slug":null,"has_3d_model":false,"image_url":null,"decayed_at":null,"tle_current":{"epoch":"2026-05-25T03:03:21.596256Z","epoch_age_seconds":74300,"freshness":"FRESH","line1":"1 65047U 25162E   26145.12733329 -.00000086  00000+0  81677-4 0  9993","line2":"2 65047  50.0031 348.4020 0000854 160.3395 199.7510 13.29315278 40308","mean_motion":13.29315278,"eccentricity":8.54e-5,"inclination_deg":50.0031,"raan_deg":348.402,"arg_perigee_deg":160.3395,"mean_anomaly_deg":199.751,"bstar":8.1677e-5,"rev_number":4030,"period_min":108.3264462413,"perigee_km":1148.7042012645,"apogee_km":1149.98989554,"semimajor_km":7527.4840484023,"source":"CELESTRAK","updated_at":"2026-05-25T13:38:05.087826Z"}}}